Location: Kissimmee Park Observatory
(28.2088°N, 81.3686°W)
Time: 20:20:44
(UTC-05:00)

Tiangong - Visible Passes

Search period start: 18 January 2022 00:00
Search period end: 28 January 2022 00:00
Orbit: 383 x 387 km, 41.5° (Epoch: 18 January)

Date Brightness Start Highest point End Pass type
(mag) Time Alt. Az. Time Alt. Az. Time Alt. Az.
18 Jan 2.3 05:33:35 39° SE 05:33:35 39° SE 05:35:43 10° SE visible
19 Jan 3.0 06:09:29 17° SW 06:09:39 17° SW 06:11:46 10° S visible
22 Jan 3.2 19:38:25 10° SSW 19:39:49 21° SSW 19:39:49 21° SSW visible
23 Jan 3.1 18:39:43 10° S 18:41:47 16° SE 18:43:24 12° ESE visible
23 Jan 4.6 20:15:22 10° WSW 20:15:38 12° WSW 20:15:38 12° WSW visible
24 Jan 0.9 19:15:32 10° SW 19:18:41 83° SE 19:19:07 63° ENE visible
25 Jan 3.6 19:53:12 10° W 19:54:44 20° WNW 19:54:44 20° WNW visible
26 Jan 1.9 18:52:56 10° WSW 18:55:59 44° NNW 18:58:02 18° NE visible
27 Jan 3.4 19:31:16 10° WNW 19:33:16 15° NNW 19:33:28 15° NNW visible
